Tracking 25693 objects as of 1-Jul-2022
HD Live streaming from Space Station
objects crossing your sky now

STARLINK-3194

Track STARLINK-3194 now!
10-day predictions
STARLINK-3194 is classified as:


NORAD ID: 49758
Int'l Code: 2021-115AL
Perigee: 545.6 km
Apogee: 548.2 km
Inclination: 53.2 °
Period: 95.4 minutes
Semi major axis: 6917 km
RCS: Unknown
Launch date: December 2, 2021
Source: United States (US)
Launch site: AIR FORCE EASTERN TEST RANGE (AFETR)
aabbcc
Your satellite tracking list
Your tracking list is empty




NASA's NSSDC Master Catalog

Two Line Element Set (TLE):
1 49758U 21115AL  22182.37137800  .00001910  00000-0  13806-3 0  9999
2 49758  53.2175  67.4742 0001882  57.7565 302.3610 15.08840922 32270
Source of the keplerian elements: AFSPC